Naples, Italy

4:05 AM CEST on April 28, 2017 (GMT +0200)
Capodichino Mil

Weather History for LIRN - December, 2013

Change the Weather History Date:

Monday, December 30, 2013

  Actual Average Record
Temperature  
Mean Temperature 55 °F -  
Max Temperature 60 °F 54 °F 60 °F (2000)
Min Temperature 50 °F 39 °F 30 °F (2014)
Degree Days  
Heating Degree Days 10    
Growing Degree Days 5 (Base 50)    
Moisture  
Dew Point 49 °F    
Average Humidity 79    
Maximum Humidity 94    
Minimum Humidity 54    
Precipitation  
Precipitation 0.01 in 0.14 in - ()
Sea Level Pressure  
Sea Level Pressure 30.10 in    
Wind  
Wind Speed 3 mph ()    
Max Wind Speed 8 mph    
Max Gust Speed -    
Visibility 5.3 miles    
Events Rain    
Averages and records for this station are not official NWS values.
T = Trace of Precipitation, MM = Missing Value Source: Averaged Metar Reports

Daily Weather History Graph

Daily Weather History Graph

Search for Another Location

Airport or City:

Trip Planner

Search our weather history database for the weather conditions in past years. The results will help you decide how hot, cold, wet, or windy it might be!

Date:

Astronomy

Dec. 30, 2013 Rise Set
Actual Time 7:26 AM CET 4:43 PM CET
Civil Twilight 6:55 AM CET 5:14 PM CET
Nautical Twilight 6:21 AM CET 5:49 PM CET
Astronomical Twilight 5:48 AM CET 6:22 PM CET
Moon 4:57 AM CET (12/30) 3:00 PM CET (12/30)
Length of Visible Light 10h 18m
Length of Day
9h 17m
Waning Crescent, 6% of the Moon is Illuminated
Dec 30
Waning Crescent
Jan 1
New
Jan 8
First Quarter
Jan 16
Full
Jan 24
Last Quarter

Hourly Weather History & Observations

Time (CET) Temp. Dew Point Humidity Pressure Visibility Wind Dir Wind Speed Gust Speed Precip Events Conditions
12:20 AM 53.6 °F 50.0 °F 88% 30.12 in 3.7 mi NNW 3.5 mph - N/A   Mostly Cloudy
12:50 AM 53.6 °F 48.2 °F 82% 30.12 in 3.1 mi NNW 3.5 mph - N/A   Mostly Cloudy
1:00 AM 53 °F 50 °F 85% 30.14 in 3 mi WNW 2.3 mph - -   Mist
1:20 AM 51.8 °F 48.2 °F 88% 30.12 in 3.1 mi West 2.3 mph - N/A   Mostly Cloudy
1:50 AM 51.8 °F 50.0 °F 94% 30.12 in 3.1 mi North 2.3 mph - N/A   Mostly Cloudy
2:20 AM 51.8 °F 48.2 °F 88% 30.12 in 3.1 mi North 2.3 mph - N/A   Mostly Cloudy
2:50 AM 50.0 °F 48.2 °F 94% 30.12 in 2.5 mi North 2.3 mph - N/A   Mostly Cloudy
3:20 AM 51.8 °F 50.0 °F 94% 30.09 in 3.1 mi NNW 3.5 mph - N/A   Mostly Cloudy
3:50 AM 51.8 °F 48.2 °F 88% 30.09 in 3.1 mi North 2.3 mph - N/A   Mostly Cloudy
4:00 AM 52 °F 49 °F 87% 30.12 in 3 mi North 3.5 mph - -   Mist
4:20 AM 51.8 °F 48.2 °F 88% 30.09 in 3.1 mi North 3.5 mph - N/A   Mostly Cloudy
4:50 AM 51.8 °F 48.2 °F 88% 30.09 in 3.1 mi North 2.3 mph - N/A   Mostly Cloudy
5:20 AM 51.8 °F 48.2 °F 88% 30.09 in 3.1 mi Variable 2.3 mph - N/A   Mostly Cloudy
5:50 AM 51.8 °F 48.2 °F 88% 30.09 in 3.1 mi NNE 3.5 mph - N/A   Scattered Clouds
6:20 AM 51.8 °F 48.2 °F 88% 30.12 in 4.3 mi NNW 4.6 mph - N/A   Scattered Clouds
6:50 AM 51.8 °F 48.2 °F 88% 30.12 in 5.0 mi NNE 2.3 mph - N/A   Scattered Clouds
7:00 AM 51 °F 48 °F 84% 30.14 in 5 mi North 2.3 mph - -   Mist
7:20 AM 50.0 °F 48.2 °F 94% 30.12 in 5.0 mi NNW 2.3 mph - N/A   Mostly Cloudy
7:50 AM 50.0 °F 46.4 °F 87% 30.12 in 6.2 mi WNW 3.5 mph - N/A   Scattered Clouds
8:20 AM 53.6 °F 48.2 °F 82% 30.12 in 6.2 mi North 3.5 mph - N/A   Scattered Clouds
8:50 AM 53.6 °F 48.2 °F 82% 30.12 in 6.2 mi North 2.3 mph - N/A   Scattered Clouds
9:20 AM 55.4 °F 50.0 °F 82% 30.12 in 6.2 mi North 2.3 mph - N/A   Partly Cloudy
9:50 AM 55.4 °F 50.0 °F 82% 30.12 in 6.2 mi Calm Calm - N/A   Scattered Clouds
10:00 AM 56 °F 49 °F 71% 30.15 in 6 mi NNE 1.2 mph - -   Mostly Cloudy
10:20 AM 55.4 °F 48.2 °F 77% 30.12 in 6.2 mi North 3.5 mph - N/A   Scattered Clouds
10:50 AM 55.4 °F 48.2 °F 77% 30.12 in 6.2 mi Variable 2.3 mph - N/A   Scattered Clouds
11:20 AM 57.2 °F 50.0 °F 77% 30.12 in 6.2 mi NNE 3.5 mph - N/A   Scattered Clouds
11:50 AM 57.2 °F 48.2 °F 72% 30.09 in 6.2 mi North 6.9 mph - N/A   Partly Cloudy
12:20 PM 59.0 °F 48.2 °F 67% 30.09 in 6.2 mi NE 8.1 mph - N/A   Partly Cloudy
12:50 PM 60.8 °F 48.2 °F 63% 30.09 in 6.2 mi NE 6.9 mph - N/A   Scattered Clouds
1:00 PM 60 °F 48 °F 54% 30.10 in 6 mi NNE 5.8 mph - -   Mostly Cloudy
1:20 PM 60.8 °F 48.2 °F 63% 30.06 in 6.2 mi NE 6.9 mph - N/A   Scattered Clouds
1:50 PM 60.8 °F 48.2 °F 63% 30.06 in 6.2 mi NNE 5.8 mph - N/A   Scattered Clouds
2:20 PM 59.0 °F 48.2 °F 67% 30.06 in 6.2 mi NW 3.5 mph - N/A   Scattered Clouds
2:50 PM 59.0 °F 50.0 °F 72% 30.06 in 6.2 mi WSW 3.5 mph - N/A   Scattered Clouds
3:20 PM 59.0 °F 48.2 °F 67% 30.06 in 6.2 mi SW 3.5 mph - N/A   Mostly Cloudy
3:50 PM 59.0 °F 50.0 °F 72% 30.06 in 6.2 mi Calm Calm - N/A   Mostly Cloudy
4:00 PM 59 °F 50 °F 64% 30.08 in 6 mi WSW 1.2 mph - -   Scattered Clouds
4:20 PM 57.2 °F 50.0 °F 77% 30.06 in 6.2 mi West 3.5 mph - N/A   Drizzle
4:50 PM 57.2 °F 50.0 °F 77% 30.06 in 6.2 mi Variable 1.2 mph - N/A   Drizzle
5:20 PM 57.2 °F 50.0 °F 77% 30.06 in 6.2 mi Calm Calm - N/A Rain Light Rain
5:50 PM 55.4 °F 50.0 °F 82% 30.06 in 6.2 mi North 3.5 mph - N/A Rain Light Rain
6:20 PM 55.4 °F 50.0 °F 82% 30.06 in 6.2 mi Variable 1.2 mph - N/A Rain Light Rain
6:50 PM 55.4 °F 50.0 °F 82% 30.06 in 6.2 mi NNW 3.5 mph - N/A   Light Drizzle
7:00 PM 55 °F 49 °F 75% 30.09 in 6 mi NNW 3.5 mph - -   Scattered Clouds
7:20 PM 55.4 °F 48.2 °F 77% 30.06 in 6.2 mi NW 3.5 mph - N/A Rain Light Rain
7:50 PM 55.4 °F 48.2 °F 77% 30.06 in 6.2 mi North 4.6 mph - N/A Rain Light Rain
8:20 PM 55.4 °F 46.4 °F 72% 30.09 in 6.2 mi ENE 5.8 mph - N/A Rain Light Rain
8:50 PM 55.4 °F 46.4 °F 72% 30.09 in 6.2 mi ENE 5.8 mph - N/A   Drizzle
9:20 PM 55.4 °F 46.4 °F 72% 30.09 in 6.2 mi East 3.5 mph - N/A   Drizzle
9:50 PM 53.6 °F 46.4 °F 77% 30.09 in 6.2 mi Variable 1.2 mph - N/A   Drizzle
10:00 PM 54 °F 47 °F 70% 30.11 in 6 mi NNE 1.2 mph - - Rain Light Rain
10:20 PM 53.6 °F 48.2 °F 82% 30.09 in 6.2 mi Calm Calm - N/A   Drizzle
10:50 PM 53.6 °F 48.2 °F 82% 30.09 in 6.2 mi NNW 3.5 mph - N/A   Mostly Cloudy
11:20 PM 53.6 °F 46.4 °F 77% 30.09 in 6.2 mi North 5.8 mph - N/A   Scattered Clouds
11:50 PM 53.6 °F 46.4 °F 77% 30.09 in 6.2 mi North 3.5 mph - N/A   Scattered Clouds